2020-12-16 00:07:51 r, 18.50m,0000000004Hz,0000137867c,0000000.299s, 006.4C,00002191
2020-12-16 00:17:49 r, 18.83m,0000000002Hz,0000186465c,0000000.405s, 006.4C,00002191
2020-12-16 00:27:51 r, 18.85m,0000000003Hz,0000190422c,0000000.413s, 006.4C,00002191
2020-12-16 00:37:50 r, 18.31m,0000000004Hz,0000115842c,0000000.251s, 006.4C,00002191
2020-12-16 00:47:49 r, 18.07m,0000000005Hz,0000092387c,0000000.200s, 006.7C,00002191
2020-12-16 00:57:51 r, 18.02m,0000000005Hz,0000088289c,0000000.192s, 006.7C,00002191
2020-12-16 01:07:50 r, 17.95m,0000000006Hz,0000083093c,0000000.180s, 006.7C,00002191
2020-12-16 01:17:49 r, 18.09m,0000000004Hz,0000094237c,0000000.205s, 006.7C,00002191
2020-12-16 01:27:50 r, 18.54m,0000000003Hz,0000144172c,0000000.313s, 006.7C,00002191
2020-12-16 01:37:51 r, 18.18m,0000000004Hz,0000102833c,0000000.223s, 006.7C,00002191
2020-12-16 01:47:49 r, 18.08m,0000000005Hz,0000094015c,0000000.204s, 006.7C,00002191
2020-12-16 01:57:50 r, 17.91m,0000000006Hz,0000080332c,0000000.174s, 006.7C,00002191
2020-12-16 02:07:49 r, 17.82m,0000000006Hz,0000074204c,0000000.161s, 006.7C,00002191
2020-12-16 02:17:49 r, 17.70m,0000000006Hz,0000066148c,0000000.144s, 006.7C,00002191
2020-12-16 02:27:49 r, 17.69m,0000000007Hz,0000065077c,0000000.141s, 006.7C,00002191
2020-12-16 02:37:52 r, 18.03m,0000000005Hz,0000089888c,0000000.195s, 006.7C,00002191
2020-12-16 02:47:49 r, 18.29m,0000000004Hz,0000113474c,0000000.246s, 006.7C,00002191
2020-12-16 02:57:52 r, 18.34m,0000000004Hz,0000119106c,0000000.258s, 006.7C,00002191
2020-12-16 03:07:49 r, 18.06m,0000000005Hz,0000091235c,0000000.198s, 006.7C,00002191
2020-12-16 03:17:49 r, 18.20m,0000000005Hz,0000103967c,0000000.226s, 006.7C,00002191
2020-12-16 03:27:49 r, 18.11m,0000000005Hz,0000096341c,0000000.209s, 006.7C,00002191
2020-12-16 03:37:50 r, 18.17m,0000000005Hz,0000101786c,0000000.221s, 006.7C,00002191
2020-12-16 03:47:49 r, 18.31m,0000000004Hz,0000115109c,0000000.250s, 006.7C,00002191
2020-12-16 03:57:50 r, 18.25m,0000000004Hz,0000109462c,0000000.238s, 006.7C,00002191
2020-12-16 04:07:50 r, 18.03m,0000000005Hz,0000089284c,0000000.194s, 006.7C,00002191
2020-12-16 04:17:49 r, 17.85m,0000000006Hz,0000076103c,0000000.165s, 007.0C,00002191
2020-12-16 04:27:50 r, 17.87m,0000000006Hz,0000077400c,0000000.168s, 007.0C,00002191
2020-12-16 04:37:51 r, 18.39m,0000000003Hz,0000123967c,0000000.269s, 007.0C,00002191
2020-12-16 04:47:49 r, 18.23m,0000000004Hz,0000107778c,0000000.234s, 007.0C,00002191
2020-12-16 04:57:51 r, 18.18m,0000000004Hz,0000102425c,0000000.222s, 007.0C,00002191
2020-12-16 05:07:50 r, 18.16m,0000000005Hz,0000100485c,0000000.218s, 007.0C,00002191
2020-12-16 05:17:49 r, 18.05m,0000000005Hz,0000090934c,0000000.197s, 007.4C,00002191
2020-12-16 05:27:51 r, 18.01m,0000000005Hz,0000087602c,0000000.190s, 007.4C,00002191
2020-12-16 05:37:49 r, 17.98m,0000000005Hz,0000085417c,0000000.185s, 007.4C,00002191
2020-12-16 05:47:49 r, 18.13m,0000000005Hz,0000097662c,0000000.212s, 007.7C,00002191
2020-12-16 05:57:49 r, 17.94m,0000000006Hz,0000082939c,0000000.180s, 007.7C,00002191
2020-12-16 06:07:50 r, 17.78m,0000000006Hz,0000071459c,0000000.155s, 007.7C,00002191
2020-12-16 06:17:49 r, 17.70m,0000000007Hz,0000066364c,0000000.144s, 007.7C,00002191
2020-12-16 06:27:50 r, 17.66m,0000000007Hz,0000063731c,0000000.138s, 008.0C,00002191
2020-12-16 06:37:49 r, 17.81m,0000000006Hz,0000073658c,0000000.160s, 008.0C,00002191
2020-12-16 06:47:49 r, 17.92m,0000000006Hz,0000081340c,0000000.177s, 008.0C,00002191
2020-12-16 06:57:49 r, 18.20m,0000000005Hz,0000104049c,0000000.226s, 008.0C,00002191
2020-12-16 07:07:51 r, 17.99m,0000000005Hz,0000086417c,0000000.188s, 008.0C,00002191
2020-12-16 07:17:49 r, 17.33m,0000000010Hz,0000046595c,0000000.101s, 008.0C,00002191
2020-12-16 07:27:49 r, 15.95m,0000000035Hz,0000013127c,0000000.028s, 008.0C,00002191
2020-12-16 07:37:50 r, 14.17m,0000000181Hz,0000000000c,0000000.000s, 008.0C,00002191
2020-12-16 07:47:50 r, 12.38m,0000000943Hz,0000000000c,0000000.000s, 008.0C,00002191
2020-12-16 07:57:49 r, 10.59m,0000004918Hz,0000000000c,0000000.000s, 008.0C,00002191
2020-12-16 08:07:50 r, 09.07m,0000019945Hz,0000000000c,0000000.000s, 008.0C,00002191
2020-12-16 08:17:50 r, 07.93m,0000056975Hz,0000000000c,0000000.000s, 008.0C,00002191
2020-12-16 08:27:49 r, 07.11m,0000120578Hz,0000000000c,0000000.000s, 008.0C,00002191
2020-12-16 08:37:49 r, 06.42m,0000227905Hz,0000000000c,0000000.000s, 008.3C,00002191
2020-12-16 08:47:51 r, 05.92m,0000361731Hz,0000000000c,0000000.000s, 008.3C,00002191
2020-12-16 08:57:49 r, 00.00m,0000474812Hz,0000000000c,0000000.000s, 009.0C,00002191
2020-12-16 09:07:51 r, 00.00m,0000598555Hz,0000000000c,0000000.000s, 009.0C,00002191
2020-12-16 09:17:49 r, 00.00m,0000598604Hz,0000000000c,0000000.000s, 009.3C,00002191
2020-12-16 09:27:49 r, 00.00m,0000598610Hz,0000000000c,0000000.000s, 009.6C,00002191
2020-12-16 09:37:51 r, 00.00m,0000598517Hz,0000000000c,0000000.000s, 009.9C,00002191
2020-12-16 09:47:49 r, 00.00m,0000598411Hz,0000000000c,0000000.000s, 010.3C,00002191
2020-12-16 09:57:49 r, 00.00m,0000598440Hz,0000000000c,0000000.000s, 010.9C,00002191
2020-12-16 10:07:50 r, 00.00m,0000598420Hz,0000000000c,0000000.000s, 011.2C,00002191
2020-12-16 10:17:49 r, 00.00m,0000598374Hz,0000000000c,0000000.000s, 011.9C,00002191
2020-12-16 10:27:49 r, 00.00m,0000598424Hz,0000000000c,0000000.000s, 011.9C,00002191
2020-12-16 10:37:49 r, 00.00m,0000598310Hz,0000000000c,0000000.000s, 012.2C,00002191
2020-12-16 10:47:51 r, 00.00m,0000598181Hz,0000000000c,0000000.000s, 012.5C,00002191
2020-12-16 10:57:49 r, 00.00m,0000598200Hz,0000000000c,0000000.000s, 012.5C,00002191
2020-12-16 11:07:50 r, 00.00m,0000598270Hz,0000000000c,0000000.000s, 012.5C,00002191
2020-12-16 11:17:50 r, 00.00m,0000598169Hz,0000000000c,0000000.000s, 012.8C,00002191
2020-12-16 11:27:49 r, 00.00m,0000598137Hz,0000000000c,0000000.000s, 013.2C,00002191
2020-12-16 11:37:51 r, 00.00m,0000598133Hz,0000000000c,0000000.000s, 013.2C,00002191
2020-12-16 11:47:49 r, 00.00m,0000598101Hz,0000000000c,0000000.000s, 013.5C,00002191
2020-12-16 11:57:49 r, 00.00m,0000598036Hz,0000000000c,0000000.000s, 013.5C,00002191
2020-12-16 12:07:49 r, 00.00m,0000598144Hz,0000000000c,0000000.000s, 013.8C,00002191
2020-12-16 12:17:50 r, 00.00m,0000598033Hz,0000000000c,0000000.000s, 013.8C,00002191
2020-12-16 12:27:49 r, 00.00m,0000598142Hz,0000000000c,0000000.000s, 013.8C,00002191
2020-12-16 12:37:50 r, 00.00m,0000598093Hz,0000000000c,0000000.000s, 013.8C,00002191
2020-12-16 12:47:50 r, 00.00m,0000598069Hz,0000000000c,0000000.000s, 014.1C,00002191
2020-12-16 12:57:49 r, 00.00m,0000597987Hz,0000000000c,0000000.000s, 014.5C,00002191
2020-12-16 13:07:49 r, 00.00m,0000597912Hz,0000000000c,0000000.000s, 014.8C,00002191
2020-12-16 13:17:51 r, 00.00m,0000597945Hz,0000000000c,0000000.000s, 015.1C,00002191
2020-12-16 13:27:48 r, 00.00m,0000597840Hz,0000000000c,0000000.000s, 015.1C,00002191
2020-12-16 13:37:51 r, 00.00m,0000597749Hz,0000000000c,0000000.000s, 015.4C,00002191
2020-12-16 13:47:50 r, 00.00m,0000597836Hz,0000000000c,0000000.000s, 015.4C,00002191
2020-12-16 13:57:49 r, 00.00m,0000597777Hz,0000000000c,0000000.000s, 015.4C,00002191
2020-12-16 14:07:51 r, 00.00m,0000597814Hz,0000000000c,0000000.000s, 015.4C,00002191
2020-12-16 14:17:50 r, 00.00m,0000597889Hz,0000000000c,0000000.000s, 015.1C,00002191
2020-12-16 14:27:49 r, 00.00m,0000598024Hz,0000000000c,0000000.000s, 014.5C,00002191
2020-12-16 14:37:50 r, 00.00m,0000598137Hz,0000000000c,0000000.000s, 013.8C,00002191
2020-12-16 14:47:50 r, 00.00m,0000598141Hz,0000000000c,0000000.000s, 013.5C,00002191
2020-12-16 14:57:49 r, 00.00m,0000597958Hz,0000000000c,0000000.000s, 013.5C,00002191
2020-12-16 15:07:49 r, 00.00m,0000598075Hz,0000000000c,0000000.000s, 013.5C,00002191
2020-12-16 15:17:51 r, 00.00m,0000598101Hz,0000000000c,0000000.000s, 013.5C,00002191
2020-12-16 15:27:49 r, 00.00m,0000598149Hz,0000000000c,0000000.000s, 013.2C,00002191
2020-12-16 15:37:50 r, 00.00m,0000598284Hz,0000000000c,0000000.000s, 012.8C,00002191
2020-12-16 15:47:50 r, 00.00m,0000598274Hz,0000000000c,0000000.000s, 012.5C,00002191
2020-12-16 15:57:49 r, 00.00m,0000502583Hz,0000000000c,0000000.000s, 012.2C,00002191
2020-12-16 16:07:51 r, 05.90m,0000366829Hz,0000000000c,0000000.000s, 011.9C,00002191
2020-12-16 16:17:49 r, 06.64m,0000185477Hz,0000000000c,0000000.000s, 011.6C,00002191
2020-12-16 16:27:49 r, 07.39m,0000094093Hz,0000000000c,0000000.000s, 011.6C,00002191
2020-12-16 16:37:51 r, 08.36m,0000038484Hz,0000000000c,0000000.000s, 011.2C,00002191
2020-12-16 16:47:50 r, 09.82m,0000010017Hz,0000000000c,0000000.000s, 011.2C,00002191
2020-12-16 16:57:49 r, 11.54m,0000002042Hz,0000000000c,0000000.000s, 011.2C,00002191
2020-12-16 17:07:49 r, 13.31m,0000000400Hz,0000000000c,0000000.000s, 010.9C,00002191
2020-12-16 17:17:50 r, 15.14m,0000000074Hz,0000006269c,0000000.014s, 010.9C,00002191
2020-12-16 17:27:49 r, 16.85m,0000000016Hz,0000029965c,0000000.065s, 010.9C,00002191
2020-12-16 17:37:50 r, 18.41m,0000000004Hz,0000126379c,0000000.274s, 010.9C,00002191
2020-12-16 17:47:49 r, 19.38m,0000000001Hz,0000309058c,0000000.671s, 010.6C,00002191
2020-12-16 17:57:49 r, 19.62m,0000000001Hz,0000381193c,0000000.827s, 010.6C,00002191
2020-12-16 18:07:49 r, 19.63m,0000000001Hz,0000387023c,0000000.840s, 010.6C,00002191
2020-12-16 18:17:51 r, 19.07m,0000000002Hz,0000230455c,0000000.500s, 010.6C,00002191
2020-12-16 18:27:49 r, 18.59m,0000000003Hz,0000148764c,0000000.323s, 010.6C,00002191
2020-12-16 18:37:51 r, 18.65m,0000000003Hz,0000157373c,0000000.342s, 010.9C,00002191
2020-12-16 18:47:49 r, 18.40m,0000000003Hz,0000124160c,0000000.269s, 011.2C,00002191
2020-12-16 18:57:48 r, 18.42m,0000000004Hz,0000126874c,0000000.275s, 011.2C,00002191
2020-12-16 19:07:50 r, 18.46m,0000000004Hz,0000131798c,0000000.286s, 011.2C,00002191
2020-12-16 19:17:50 r, 18.35m,0000000003Hz,0000119140c,0000000.259s, 011.6C,00002191
2020-12-16 19:27:49 r, 18.44m,0000000003Hz,0000129638c,0000000.281s, 011.6C,00002191
2020-12-16 19:37:50 r, 18.41m,0000000003Hz,0000125400c,0000000.272s, 011.6C,00002191
2020-12-16 19:47:50 r, 18.46m,0000000003Hz,0000131397c,0000000.285s, 011.6C,00002191
2020-12-16 19:57:49 r, 18.46m,0000000003Hz,0000131309c,0000000.285s, 011.6C,00002191
2020-12-16 20:07:49 r, 18.74m,0000000003Hz,0000170006c,0000000.369s, 011.6C,00002191
2020-12-16 20:17:51 r, 18.78m,0000000003Hz,0000177014c,0000000.384s, 011.6C,00002191
2020-12-16 20:27:49 r, 18.93m,0000000002Hz,0000203421c,0000000.441s, 011.6C,00002191
2020-12-16 20:37:51 r, 18.94m,0000000002Hz,0000204445c,0000000.444s, 011.6C,00002191
2020-12-16 20:47:50 r, 19.02m,0000000002Hz,0000220611c,0000000.479s, 011.6C,00002191
2020-12-16 20:57:49 r, 18.75m,0000000003Hz,0000172977c,0000000.375s, 011.6C,00002191
2020-12-16 21:07:51 r, 18.72m,0000000003Hz,0000166943c,0000000.362s, 011.6C,00002191
2020-12-16 21:17:50 r, 18.58m,0000000003Hz,0000146671c,0000000.318s, 011.6C,00002191
2020-12-16 21:27:49 r, 18.49m,0000000003Hz,0000136166c,0000000.295s, 011.6C,00002191
2020-12-16 21:37:50 r, 18.41m,0000000004Hz,0000125641c,0000000.273s, 011.6C,00002191
2020-12-16 21:47:50 r, 18.40m,0000000003Hz,0000124821c,0000000.271s, 011.6C,00002191
2020-12-16 21:57:49 r, 18.38m,0000000004Hz,0000122885c,0000000.267s, 011.9C,00002191
2020-12-16 22:07:50 r, 18.37m,0000000004Hz,0000122183c,0000000.265s, 011.9C,00002191
2020-12-16 22:17:49 r, 18.33m,0000000004Hz,0000117278c,0000000.255s, 011.9C,00002191
2020-12-16 22:27:49 r, 18.34m,0000000004Hz,0000118582c,0000000.257s, 011.9C,00002191
2020-12-16 22:37:50 r, 18.42m,0000000004Hz,0000126646c,0000000.275s, 011.9C,00002191
2020-12-16 22:47:50 r, 18.39m,0000000003Hz,0000124578c,0000000.270s, 011.9C,00002191
2020-12-16 22:57:49 r, 18.35m,0000000004Hz,0000120152c,0000000.261s, 011.9C,00002191
2020-12-16 23:07:51 r, 18.34m,0000000003Hz,0000118280c,0000000.257s, 011.9C,00002191
2020-12-16 23:17:50 r, 18.41m,0000000004Hz,0000125928c,0000000.273s, 011.9C,00002191
2020-12-16 23:27:49 r, 18.43m,0000000004Hz,0000128515c,0000000.279s, 012.2C,00002191
2020-12-16 23:37:49 r, 18.46m,0000000003Hz,0000132867c,0000000.288s, 012.2C,00002191
2020-12-16 23:47:49 r, 18.46m,0000000004Hz,0000132388c,0000000.287s, 012.2C,00002191
2020-12-16 23:57:49 r, 18.46m,0000000004Hz,0000134014c,0000000.291s, 012.2C,00002191
